Location: Bocianicha
(51.5066°N, 19.2563°E)
Time: 13:42:58
(UTC+00:00)

SL-19 R/B - Pass Details

Date: 15 June 2025
Orbit: 873 x 1208 km, 100.5° (Epoch: 17 July)

Event Time Altitude Azimuth Distance (km) Brightness Sun altitude
Rises 00:34:19 0° 17° (NNE) 3,528 9.4 -11.3°
Reaches altitude 10° 00:36:45 10° 15° (NNE) 2,562 8.2 -11.2°
Maximum altitude 00:42:21 74° 292° (WNW) 912 4.4 -10.8°
Enters shadow 00:47:17 13° 209° (SSW) 2,293 5.8 -10.4°
